Nuiqsut, AK

11:39 AM AKDT on April 27, 2017 (GMT -0800)
Nuiqsut

Weather History for PAQT - September, 2013

Change the Weather History Date:

Saturday, September 28, 2013

  Actual Average (PAKU) Record (PAKU)
Temperature  
Mean Temperature 29 °F -  
Max Temperature 30 °F 29 °F 39 °F (2016)
Min Temperature 28 °F 23 °F 9 °F (1986)
Degree Days  
Heating Degree Days 36    
Moisture  
Dew Point 29 °F    
Average Humidity 100    
Maximum Humidity 100    
Minimum Humidity 96    
Precipitation  
Precipitation 0.01 in - - ()
Sea Level Pressure  
Sea Level Pressure 29.66 in    
Wind  
Wind Speed 7 mph (North)    
Max Wind Speed 12 mph    
Max Gust Speed -    
Visibility 3 miles    
Events Fog , Rain , Snow    
Averages and records for this station are not official NWS values.
T = Trace of Precipitation, MM = Missing Value Source: NWS Daily Summary

Daily Weather History Graph

Daily Weather History Graph

Search for Another Location

Airport or City:

Trip Planner

Search our weather history database for the weather conditions in past years. The results will help you decide how hot, cold, wet, or windy it might be!

Date:

Astronomy

Sep. 28, 2013 Rise Set
Actual Time 8:09 AM AKDT 7:37 PM AKDT
Civil Twilight 7:08 AM AKDT 8:38 PM AKDT
Nautical Twilight 5:52 AM AKDT 9:52 PM AKDT
Astronomical Twilight 4:19 AM AKDT 11:23 PM AKDT
Moon No Moon Rise 6:49 PM AKDT (9/28)
Length of Visible Light 13h 29m
Length of Day
11h 27m
Waning Crescent, 34% of the Moon is Illuminated
Sep 28
Waning Crescent
Oct 4
New
Oct 11
First Quarter
Oct 18
Full
Oct 26
Last Quarter

Hourly Weather History & Observations

Time (AKDT) Temp. Windchill Dew Point Humidity Pressure Visibility Wind Dir Wind Speed Gust Speed Precip Events Conditions
12:53 AM 30.0 °F 24.1 °F 30.0 °F 100% 29.58 in 0.8 mi North 5.8 mph - N/A   Mist
1:53 AM 30.0 °F 24.1 °F 30.0 °F 100% 29.58 in 0.8 mi North 5.8 mph - N/A   Mist
2:43 AM 30.2 °F 24.3 °F 30.2 °F 100% 29.59 in 1.0 mi North 5.8 mph - N/A   Mist
2:53 AM 30.0 °F 25.2 °F 30.0 °F 100% 29.59 in 1.5 mi NNW 4.6 mph - N/A   Overcast
3:07 AM 30.2 °F 24.3 °F 30.2 °F 100% 29.59 in 0.8 mi North 5.8 mph - N/A   Mist
3:14 AM 30.2 °F 24.3 °F 30.2 °F 100% 29.59 in 1.0 mi North 5.8 mph - N/A   Mist
3:53 AM 30.0 °F 22.4 °F 30.0 °F 100% 29.59 in 1.0 mi NNW 8.1 mph - N/A   Mist
4:02 AM 30.2 °F 22.6 °F 30.2 °F 100% 29.59 in 0.8 mi NNW 8.1 mph - N/A   Mist
4:51 AM 30.2 °F 23.4 °F 30.2 °F 100% 29.59 in 1.0 mi NNW 6.9 mph - 0.00 in   Mist
4:53 AM 30.0 °F 23.2 °F 30.0 °F 100% 29.60 in 1.0 mi NNW 6.9 mph - 0.00 in   Mist
5:20 AM 28.4 °F 21.2 °F 28.4 °F 100% 29.59 in 0.8 mi NNW 6.9 mph - 0.00 in   Mist
5:53 AM 28.9 °F 21.1 °F 28.9 °F 100% 29.60 in 0.5 mi NNW 8.1 mph - 0.01 in Fog Light Freezing Fog
6:53 AM 28.9 °F 21.1 °F 28.9 °F 100% 29.61 in 0.8 mi NNW 8.1 mph - N/A   Mist
9:16 AM 28.4 °F 19.7 °F 28.4 °F 100% 29.60 in 1.2 mi NNW 9.2 mph - 0.00 in Rain Light Freezing Rain
9:24 AM 28.4 °F 19.1 °F 28.4 °F 100% 29.60 in 0.5 mi NNW 10.4 mph - 0.00 in Fog , Rain Light Freezing Rain
9:53 AM 28.9 °F 19.8 °F 28.9 °F 100% 29.60 in 0.2 mi NNW 10.4 mph - 0.00 in Fog , Rain Light Freezing Rain
10:38 AM 30.2 °F 21.3 °F 30.2 °F 100% 29.61 in 2.0 mi North 10.4 mph - 0.00 in Rain Light Freezing Rain
10:53 AM 30.0 °F 21.7 °F 30.0 °F 100% 29.61 in 2.5 mi North 9.2 mph - 0.00 in   Overcast
11:03 AM 30.2 °F 20.8 °F 30.2 °F 100% 29.61 in 7.0 mi North 11.5 mph - N/A   Overcast
11:34 AM 30.2 °F 22.6 °F 30.2 °F 100% 29.62 in 1.8 mi NNW 8.1 mph - 0.00 in   Overcast
11:44 AM 30.2 °F 22.6 °F 30.2 °F 100% 29.62 in 3.0 mi NNW 8.1 mph - 0.00 in   Overcast
11:53 AM 30.0 °F 21.7 °F 30.0 °F 100% 29.62 in 10.0 mi NNW 9.2 mph - 0.00 in   Overcast
12:07 PM 30.2 °F 21.3 °F 30.2 °F 100% 29.62 in 4.0 mi NNW 10.4 mph - 0.00 in Snow Light Snow
12:53 PM 30.0 °F 21.1 °F 30.0 °F 100% 29.63 in 5.0 mi NNW 10.4 mph - 0.00 in Snow Light Snow
1:53 PM 30.0 °F 21.1 °F 30.0 °F 100% 29.64 in 10.0 mi NNW 10.4 mph - 0.00 in   Overcast
3:09 PM 30.2 °F 21.9 °F 30.2 °F 100% 29.64 in 1.8 mi NNW 9.2 mph - 0.00 in Snow Light Snow
3:19 PM 30.2 °F 23.4 °F 30.2 °F 100% 29.64 in 2.0 mi NNW 6.9 mph - 0.00 in Snow Light Snow
3:53 PM 30.9 °F 22.8 °F 30.9 °F 100% 29.65 in 2.0 mi North 9.2 mph - 0.00 in Snow Light Snow
4:05 PM 30.2 °F 22.6 °F 30.2 °F 100% 29.65 in 4.0 mi North 8.1 mph - 0.00 in Snow Light Snow
4:20 PM 30.2 °F 21.9 °F 30.2 °F 100% 29.65 in 1.8 mi NNE 9.2 mph - 0.00 in Snow Light Snow
4:40 PM 30.2 °F 21.3 °F 30.2 °F 100% 29.66 in 3.0 mi NNE 10.4 mph - 0.00 in Snow Light Snow
4:51 PM 30.2 °F 21.3 °F 30.2 °F 100% 29.66 in 6.0 mi NNE 10.4 mph - 0.00 in   Overcast
4:53 PM 30.0 °F 21.7 °F 30.0 °F 100% 29.67 in 7.0 mi NNE 9.2 mph - 0.00 in   Overcast
5:53 PM 30.0 °F 22.4 °F 28.9 °F 96% 29.69 in 6.0 mi North 8.1 mph - 0.00 in Snow Light Snow
6:14 PM 28.4 °F 20.4 °F 28.4 °F 100% 29.69 in 6.0 mi North 8.1 mph - 0.00 in Snow Light Snow
6:53 PM 28.9 °F 21.9 °F 28.9 °F 100% 29.70 in 10.0 mi North 6.9 mph - 0.00 in   Overcast
7:49 PM 28.4 °F 21.2 °F 28.4 °F 100% 29.72 in 2.5 mi North 6.9 mph - 0.00 in Snow Light Snow
7:53 PM 28.9 °F 22.8 °F 28.0 °F 96% 29.72 in 2.5 mi North 5.8 mph - 0.00 in Snow Light Snow
8:29 PM 28.4 °F 22.2 °F 28.4 °F 100% 29.72 in 2.5 mi North 5.8 mph - 0.00 in Snow Light Snow
8:34 PM 28.4 °F 21.2 °F 28.4 °F 100% 29.72 in 3.0 mi North 6.9 mph - 0.00 in Snow Light Snow
8:53 PM 28.9 °F 21.9 °F 28.9 °F 100% 29.73 in 4.0 mi North 6.9 mph - 0.00 in Snow Light Snow
9:19 PM 28.4 °F 21.2 °F 28.4 °F 100% 29.73 in 3.0 mi North 6.9 mph - 0.00 in Snow Light Snow
9:51 PM 28.4 °F 22.2 °F 28.4 °F 100% 29.75 in 4.0 mi North 5.8 mph - 0.00 in Snow Light Snow
9:53 PM 28.0 °F 21.7 °F 28.0 °F 100% 29.75 in 3.0 mi North 5.8 mph - 0.00 in Snow Light Snow
10:06 PM 28.4 °F 21.2 °F 28.4 °F 100% 29.75 in 4.0 mi North 6.9 mph - 0.00 in Snow Light Snow
10:19 PM 28.4 °F 22.2 °F 28.4 °F 100% 29.76 in 3.0 mi North 5.8 mph - 0.00 in Snow Light Snow
10:53 PM 28.0 °F 21.7 °F 28.0 °F 100% 29.77 in 4.0 mi North 5.8 mph - 0.00 in Snow Light Snow
11:00 PM 28.4 °F 21.2 °F 28.4 °F 100% 29.76 in 4.0 mi North 6.9 mph - 0.00 in Snow Light Snow
11:25 PM 28.4 °F 22.2 °F 28.4 °F 100% 29.77 in 4.0 mi North 5.8 mph - 0.00 in Snow Light Snow
11:53 PM 28.0 °F 21.7 °F 27.0 °F 96% 29.78 in 6.0 mi North 5.8 mph - 0.00 in Snow Light Snow